SCP
0 0 0 0 0 0 0 0 0 0 0 0 0 0 0 0 0 0 0 0 0 0 0 0 0 0 0 0 0 0 0 0 0 0 0 0 0 0 0 0 0 0 0 0
0 0 0 0 0 0 0 0 0 0 0 0 0 0 0 0 0 0 0 0 0 0 0 0 0 0 0 0 0 0 0 0 0 0 0 0 0 0 0 0 0 0 0 0
0 0 0 0 0 0 0 0 0 0 0 0 0 0 0 0 0 0 0 0 0 0 0 0 0 0 0 0 0 0 0 0 0 0 0 0 0 0 0 0 0 0 0 0
0 0 0 0 0 0 0 0 0 0 0 0 0 0 0 0 0 0 0 0 0 0 0 0 0 0 0 0 0 0 0 0 0 0 0 0 0 0 0 0 0 0 0 0
0 0 0 0 0 0 0 0 0 0 0 0 0 0 0 0 0 0 0 0 0 0 0 0 0 0 0 0 0 0 0 0 0 0 0 0 0 0 0 0 0 0 0 0
0 0 0 0 0 0 0 0 0 0 0 0 0 0 0 0 0 0 0 0 0 0 0 0 0 0 0 0 0 0 0 0 0 0 0 0 0 0 0 0 0 0 0 0
0 0 0 0 0 0 0 0 0 0 0 0 0 0 0 0 0 0 0 0 0 0 0 0 0 0 0 0 0 0 0 0 0 0 0 0 0 0 0 0 0 0 0 0
0 0 0 0 0 0 0 0 0 0 0 0 0 0 0 0 0 0 0 0 0 0 0 0 0 0 0 0 0 0 0 0 0 0 0 0 0 0 0 0 0 0 0 0
0 0 0 0 0 0 0 0 0 0 0 0 0 0 0 0 0 0 0 0 0 0 0 0 0 0 0 0 0 0 0 0 0 0 0 0 0 0 0 0 0 0 0 0
0 0 0 0 0 0 0 0 0 0 0 0 0 0 0 0 0 0 0 0 0 0 0 0 0 0 0 0 0 0 0 0 0 0 0 0 0 0 0 0 0 0 0 0
0 0 0 0 0 0 0 0 0 0 0 0 0 0 0 0 0 0 0 0 0 0 0 0 0 0 0 0 0 0 0 0 0 0 0 0 0 0 0 0 0 0 0 0
0 0 0 0 0 0 0 0 0 0 0 0 0 0 0 0 0 0 0 0 0 0 0 0 0 0 0 0 0 0 0 0 0 0 0 0 0 0 0 0 0 0 0 0
0 0 0 0 0 0 0 0 0 0 0 0 0 0 0 0 0 0 0 0 0 0 0 0 0 0 0 0 0 0 0 0 0 0 0 0 0 0 0 0 0 0 0 0
0 0 0 0 0 0 0 0 0 0 0 0 0 0 0 0 0 0 0 0 0 0 0 0 0 0 0 0 0 0 0 0 0 0 0 0 0 0 0 0 0 0 0 0
0 0 0 0 0 0 0 0 0 0 0 0 0 0 0 0 0 0 0 0 0 0 0 0 0 0 0 0 0 0 0 0 0 0 0 0 0 0 0 0 0 0 0 0
0 0 0 0 0 0 0 0 0 0 0 0 0 0 0 0 0 0 0 0 0 0 0 0 0 0 0 0 0 0 0 0 0 0 0 0 0 0 0 0 0 0 0 0
0 0 0 0 0 0 0 0 0 0 0 0 0 0 0 0 0 0 0 0 0 0 0 0 0 0 0 0 0 0 0 0 0 0 0 0 0 0 0 0 0 0 0 0
0 0 0 0 0 0 0 0 0 0 0 0 0 0 0 0 0 0 0 0 0 0 0 0 0 0 0 0 0 0 0 0 0 0 0 0 0 0 0 0 0 0 0 0
0 0 0 0 0 0 0 0 0 0 0 0 0 0 0 0 0 0 0 0 0 0 0 0 0 0 0 0 0 0 0 0 0 0 0 0 0 0 0 0 0 0 0 0
0 0 0 0 0 0 0 0 0 0 0 0 0 0 0 0 0 0 0 0 0 0 0 0 0 0 0 0 0 0 0 0 0 0 0 0 0 0 0 0 0 0 0 0
0 0 0 0 0 0 0 0 0 0 0 0 0 0 0 0 0 0 0 0 0 0 0 0 0 0 0 0 0 0 0 0 0 0 0 0 0 0 0 0 0 0 0 0
0 0 0 0 0 0 0 0 0 0 0 0 0 0 0 0 0 0 0 0 0 0 0 0 0 0 0 0 0 0 0 0 0 0 0 0 0 0 0 0 0 0 0 0
0 0 0 0 0 0 0 0 0 0 0 0 0 0 0 0 0 0 0 0 0 0 0 0 0 0 0 0 0 0 0 0 0 0 0 0 0 0 0 0 0 0 0 0
0 0 0 0 0 0 0 0 0 0 0 0 0 0 0 0 0 0 0 0 0 0 0 0 0 0 0 0 0 0 0 0 0 0 0 0 0 0 0 0 0 0 0 0
0 0 0 0 0 0 0 0 0 0 0 0 0 0 0 0 0 0 0 0 0 0 0 0 0 0 0 0 0 0 0 0 0 0 0 0 0 0 0 0 0 0 0 0
0 0 0 0 0 0 0 0 0 0 0 0 0 0 0 0 0 0 0 0 0 0 0 0 0 0 0 0 0 0 0 0 0 0 0 0 0 0 0 0 0 0 0 0
0 0 0 0 0 0 0 0 0 0 0 0 0 0 0 0 0 0 0 0 0 0 0 0 0 0 0 0 0 0 0 0 0 0 0 0 0 0 0 0 0 0 0 0
Wind_Speed
1 1 3 4 7 9 8 6 3 1 3 7 7 7 5 5 5 5 6 5 5 4 4 4 4 4 4 4 4 5 5 6 6 6 6 7 7 8 8 8 9 8 9 9
1 2 2 4 6 9 10 10 7 3 3 2 5 4 4 4 5 5 5 6 5 5 4 4 4 4 4 4 4 5 5 6 6 6 6 7 7 8 8 8 9 9 9 9
1 3 1 6 10 12 9 7 8 8 5 4 4 4 3 3 4 4 5 6 6 5 5 5 4 4 4 4 4 5 5 6 6 6 6 7 7 8 8 8 8 9 9 9
1 1 5 2 2 4 8 8 7 5 3 3 3 2 2 2 3 5 6 6 6 5 5 5 5 5 5 5 5 5 5 5 5 5 6 7 7 8 7 6 7 7 8 8
1 3 5 3 3 2 4 5 8 8 4 2 2 0 1 3 4 5 5 6 6 6 6 5 5 5 5 5 5 5 5 5 5 5 6 6 7 6 5 5 6 6 6 7
2 2 3 2 3 1 1 2 2 5 5 4 3 2 2 4 6 6 6 6 6 5 6 6 5 5 6 5 5 5 5 5 5 5 6 6 6 5 5 5 5 5 5 5
3 3 3 3 3 2 1 2 3 3 3 3 2 1 4 6 5 6 6 6 6 5 5 5 5 5 6 5 5 5 5 5 5 5 6 5 5 4 4 4 4 4 4 4
3 4 4 4 3 1 2 3 3 4 3 3 4 4 5 5 6 6 6 6 6 5 5 5 5 6 6 5 5 5 5 5 5 5 4 4 4 3 3 3 4 4 3 3
3 3 3 2 3 4 3 2 3 3 3 3 2 3 4 5 6 6 7 6 6 6 6 5 5 6 6 5 5 5 5 5 5 4 3 3 3 3 2 2 2 2 2 2
2 2 4 4 3 3 3 3 3 3 2 1 1 2 3 5 6 6 7 7 6 7 7 6 5 6 6 7 6 6 6 5 4 4 3 3 2 2 2 2 2 2 2 1
4 3 2 3 3 3 4 3 3 3 2 1 1 1 2 4 6 6 7 7 7 7 7 7 7 7 7 7 7 6 6 5 4 4 4 4 3 3 4 3 3 2 2 1
2 0 2 4 5 4 3 2 2 2 2 1 0 2 2 3 5 6 7 7 7 7 7 8 8 8 8 7 7 7 5 5 4 3 3 3 3 3 6 4 5 5 4 3
2 3 4 5 5 4 3 2 2 2 2 2 1 2 2 3 4 6 7 8 8 8 8 8 8 8 8 7 7 6 6 5 4 4 4 3 3 3 2 2 2 2 2 1
3 2 2 3 3 3 2 2 2 2 3 2 1 1 2 2 3 6 7 8 8 7 8 8 8 8 8 7 7 6 6 6 5 4 4 3 3 3 2 2 1 1 2 3
3 2 2 3 3 2 2 2 2 3 2 2 1 1 2 3 4 5 5 7 7 7 8 9 9 8 8 8 7 7 6 5 4 4 4 3 3 2 2 2 1 1 1 2
4 3 3 2 1 1 1 2 2 3 3 3 2 2 3 3 3 4 5 7 8 9 9 9 9 8 8 8 8 6 5 9 7 4 4 4 3 3 2 2 2 2 2 2
5 3 2 1 1 1 1 2 3 3 3 4 3 3 2 3 3 4 5 6 6 6 7 8 7 7 8 9 8 6 5 7 10 5 4 4 4 3 3 3 3 2 3 3
4 3 2 1 1 1 2 3 3 3 4 4 4 2 3 3 4 5 4 4 5 5 6 6 7 8 8 8 7 6 6 6 5 5 4 4 4 3 3 3 3 3 3 3
4 4 3 2 2 2 2 3 3 3 3 3 3 2 3 3 3 3 4 5 6 7 6 6 11 9 8 9 9 6 6 7 6 5 5 7 5 4 4 4 3 3 3 3
4 3 3 2 2 2 2 3 3 3 2 2 2 2 2 2 2 2 4 5 5 4 5 7 9 8 8 9 11 6 7 7 7 6 5 5 5 5 4 4 4 4 4 3
3 3 3 2 3 3 3 3 3 3 3 2 2 2 2 2 1 2 3 4 3 4 6 10 7 6 7 9 11 6 7 7 7 6 6 6 5 5 5 4 4 4 4 4
3 2 3 3 3 3 3 3 3 3 3 3 2 2 2 2 2 2 3 3 3 6 5 5 5 8 10 11 7 7 7 7 6 6 6 6 5 5 5 5 4 4 4 4
2 2 3 3 3 3 3 3 3 3 3 3 3 2 2 2 2 2 3 2 2 6 5 4 7 12 14 9 6 7 7 7 6 6 6 5 5 5 5 5 4 4 4 4
2 2 2 3 3 3 3 4 4 3 3 3 3 3 2 2 2 2 2 3 5 6 4 6 11 13 13 6 6 6 7 6 6 5 5 5 5 5 5 4 4 4 4 5
1 1 1 2 2 2 3 4 4 3 3 2 3 3 2 2 2 2 2 3 5 5 3 6 10 12 7 5 6 6 6 6 6 5 5 5 5 5 4 4 4 4 4 4
0 1 1 1 1 2 2 3 3 3 3 3 3 2 2 2 3 2 2 3 4 4 3 3 4 6 5 5 5 6 5 6 6 6 5 5 5 5 4 4 5 4 4 4
1 1 1 2 1 1 1 2 3 3 3 4 4 3 3 3 3 3 3 3 2 2 2 2 3 3 4 5 5 5 5 5 5 5 5 5 4 4 5 5 4 4 4 4
Wind_Direction
47 59 148 190 196 198 201 216 231 325 150 178 174 167 162 153 146 149 148 148 147 136 122 114 99 84 75 66 53 58 63 59 53 51 51 53 54 52 52 54 58 59 62 61
211 194 211 236 224 211 211 223 243 277 289 172 143 144 154 160 163 174 165 156 146 138 127 116 107 98 90 79 66 70 71 68 64 62 60 60 61 61 62 61 60 62 64 66
214 149 250 249 223 212 207 202 209 224 222 154 150 168 172 169 174 174 155 146 143 141 128 116 112 107 102 92 80 79 76 71 70 71 70 68 70 69 67 66 67 67 67 69
277 184 244 215 58 190 205 216 213 220 207 167 151 143 126 132 154 148 140 139 138 132 126 122 115 110 105 94 89 88 83 78 79 81 81 79 78 75 70 68 70 71 68 67
251 262 265 173 148 151 182 219 210 212 213 157 116 65 180 103 98 112 118 121 122 122 124 122 119 120 114 104 99 96 93 88 86 91 91 88 84 79 77 79 75 73 72 71
232 258 277 104 113 91 184 222 163 178 181 168 151 202 181 125 108 105 104 107 113 118 120 119 118 119 117 114 109 105 102 98 93 95 97 93 90 86 81 82 82 81 77 76
239 250 277 113 135 150 205 132 71 93 116 133 145 132 135 130 123 124 122 122 124 125 123 122 124 123 121 117 115 112 108 106 102 99 101 103 98 94 96 95 91 87 82 74
206 229 241 136 146 164 99 84 73 75 77 83 96 113 131 137 137 136 135 138 140 132 125 125 132 130 125 124 119 118 116 113 111 112 117 120 118 115 114 113 104 97 89 77
201 202 130 140 110 95 80 73 60 66 68 91 114 147 155 156 153 154 153 155 151 142 138 138 141 141 143 143 140 134 126 124 124 124 127 135 131 126 116 108 104 103 100 96
272 233 168 160 132 103 79 78 66 59 59 85 117 152 164 164 162 163 163 163 159 154 155 157 155 151 151 152 153 146 143 144 146 142 135 115 101 108 103 91 95 102 102 102
246 242 170 154 133 116 101 89 75 55 40 44 88 192 184 180 173 170 170 166 166 169 168 166 162 158 156 159 159 156 153 151 147 141 134 112 82 69 90 71 96 111 106 95
230 261 147 127 111 95 94 80 56 29 360 2 259 231 212 196 176 171 171 169 174 176 171 168 168 165 163 165 165 159 156 156 154 149 136 131 123 94 85 107 91 86 90 88
106 57 68 103 100 82 72 53 22 342 307 297 282 232 218 205 181 172 173 178 183 181 173 169 170 171 170 169 167 165 162 160 160 159 155 154 147 142 143 123 127 127 126 95
93 97 126 118 105 84 62 17 340 311 294 277 263 233 217 209 189 183 184 184 180 176 172 172 174 176 172 167 166 164 159 162 162 163 155 152 152 155 159 168 193 228 210 217
121 94 92 85 82 74 47 3 332 314 317 313 285 235 219 215 209 201 183 170 169 177 178 178 180 178 168 165 166 165 159 160 159 153 149 148 149 153 165 180 195 208 216 239
126 111 104 102 88 38 354 331 311 307 311 304 288 259 239 225 214 199 176 168 177 189 187 185 187 177 166 164 164 165 166 169 162 157 156 157 162 170 183 194 206 220 229 229
137 155 156 172 223 313 331 325 311 306 303 297 288 274 246 219 206 201 190 184 190 192 187 186 183 169 168 168 168 168 163 169 170 166 170 172 175 184 190 196 210 224 233 236
100 106 110 100 12 331 322 323 318 309 300 296 294 271 236 221 217 210 194 179 179 187 190 181 170 167 171 172 171 167 166 169 173 175 174 178 181 185 189 200 215 227 237 251
88 83 71 53 23 340 320 320 319 310 307 307 295 271 253 242 228 204 181 182 194 205 200 180 175 173 177 181 173 168 167 170 175 177 175 189 192 190 195 204 215 223 230 236
80 70 58 39 22 2 340 333 323 316 319 318 303 290 278 263 231 198 194 208 213 205 175 175 178 180 181 183 178 173 174 176 179 180 180 184 191 196 200 207 214 222 230 236
79 65 50 30 11 1 353 341 333 329 329 326 311 296 285 276 243 207 207 228 218 179 176 183 183 184 182 184 183 178 179 180 183 184 186 190 194 198 202 207 216 225 230 237
65 49 34 19 4 356 356 351 348 342 338 332 326 317 304 285 261 243 234 235 205 189 185 188 186 190 189 186 184 182 184 186 187 186 187 190 193 198 203 206 214 223 228 232
61 40 21 10 357 342 343 355 356 345 334 326 317 307 295 280 259 250 263 242 201 206 200 197 200 199 196 189 185 185 186 188 189 190 190 191 193 195 201 207 213 218 224 232
48 30 11 358 348 344 344 344 341 332 321 313 309 305 299 296 285 260 268 257 239 231 218 211 210 207 199 189 184 186 187 189 188 187 188 189 192 194 200 204 212 219 225 235
31 358 342 340 339 334 329 329 330 332 331 325 320 319 314 300 291 293 280 262 257 249 228 219 216 211 199 183 184 185 186 188 188 186 189 191 195 197 201 205 211 218 226 234
278 296 305 305 305 317 324 325 323 326 329 326 324 321 320 314 304 297 284 271 263 253 237 213 209 208 190 180 184 185 186 192 199 196 191 192 195 196 202 209 217 222 229 237
240 257 278 289 293 313 317 313 312 315 320 318 314 313 312 308 301 294 288 278 267 250 225 207 204 196 183 179 181 184 185 184 185 184 185 190 193 199 204 209 215 222 230 239